Location: Newark
(54.6833°N, 25.2833°E)
Time: 09:36:38
(UTC+00:00)

Tiros 1 despin weight - Pass Details

Date: 25 November 2019
Orbit: 594 x 642 km, 48.2° (Epoch: 15 December)

Event Time Altitude Azimuth Distance (km) Brightness Sun altitude
Rises 09:13:17 0° 207° (SSW) 2,823 ? 13.8°
Reaches altitude 10° 09:16:19 10° 186° (S) 1,922 ? 13.9°
Maximum altitude 09:18:57 16° 149° (SSE) 1,579 ? 13.9°
Drops below altitude 10° 09:21:37 10° 111° (ESE) 1,927 ? 14.0°
Sets 09:24:39 0° 90° (E) 2,835 ? 14.1°
